Dewpoint
23 23 23 21 20 20 21 22 23 23 22 21 21 21 22 22 21 21 18 20 20 19 21 21 21 22 21 21 21 20 20 21 21 21 25 27 27 27 30 32 33 33 33
25 24 24 22 20 20 21 23 24 23 22 22 22 22 22 23 22 22 20 20 21 20 21 21 20 21 22 21 20 19 19 20 21 21 21 24 25 26 28 31 33 30 30
33 30 25 24 23 25 24 24 25 24 23 22 23 22 22 20 22 23 21 20 21 20 21 20 19 19 20 20 22 20 19 20 21 21 19 19 22 24 26 26 33 30 28
28 33 31 31 29 28 27 27 27 25 25 24 24 24 23 21 20 20 20 20 19 19 19 18 17 16 17 17 18 20 20 19 19 19 18 17 17 20 23 25 27 33 28
25 27 28 29 28 27 26 25 25 26 25 24 25 27 23 22 21 22 22 21 21 21 21 20 18 17 16 15 15 16 17 17 17 17 17 15 16 17 19 23 25 28 31
25 25 25 25 24 24 24 23 23 24 24 24 25 25 25 20 18 18 23 23 23 22 21 22 21 18 17 14 14 15 15 15 16 16 15 15 16 17 18 21 23 24 22
25 25 24 23 21 22 22 21 20 21 22 22 24 24 23 20 18 16 18 23 21 21 20 20 19 18 17 19 13 15 16 14 14 16 14 15 15 17 18 19 21 24 25
25 25 24 23 21 21 20 19 18 18 18 19 19 19 19 19 19 17 17 16 15 16 16 14 15 13 14 15 11 11 15 16 15 16 15 15 15 16 18 19 19 22 29
25 25 25 23 21 21 18 18 17 13 12 16 17 18 19 21 18 18 19 12 15 17 16 16 12 13 13 14 9 10 13 16 15 15 15 15 14 14 14 15 15 15 16
25 27 27 24 22 21 20 19 17 15 17 15 17 20 21 22 18 17 19 15 18 19 18 18 13 12 12 12 12 11 12 14 15 16 16 15 15 15 15 16 14 10 12
26 26 26 25 25 25 22 21 19 18 15 18 20 21 21 23 18 16 17 19 21 18 18 17 16 11 11 11 11 11 11 15 15 15 15 14 15 15 14 16 14 14 10
27 26 25 25 23 22 23 22 20 20 20 19 19 19 20 20 18 15 14 14 16 18 17 17 15 10 10 11 10 11 12 14 14 13 13 13 13 13 14 15 15 14 14
27 25 24 24 22 21 21 21 20 19 18 18 18 19 19 20 18 15 13 12 11 16 13 9 9 9 10 12 10 11 13 13 13 12 12 13 13 14 13 12 13 14 12
26 23 23 22 19 19 20 19 18 18 16 17 17 18 19 18 18 19 18 17 13 14 14 14 11 11 12 12 13 12 12 12 11 12 11 12 11 10 9 9 8 10 8
23 22 22 20 16 17 17 17 16 17 15 15 17 19 19 19 19 15 16 16 14 11 12 13 13 12 12 11 11 11 10 9 9 9 8 7 6 5 5 4 5 5 3
22 22 20 17 16 16 15 15 18 17 19 20 20 24 19 17 13 11 12 10 6 7 12 11 11 11 10 8 7 7 8 6 5 5 5 4 4 2 1 1 1 2 -0
22 20 18 17 16 15 13 13 15 16 16 16 18 18 17 14 12 11 9 8 4 8 9 9 9 9 6 2 2 2 3 5 4 3 4 4 4 2 1 0 0 -0 -1
22 19 19 19 19 17 16 18 18 17 16 16 16 18 15 13 11 9 5 4 9 7 4 5 6 5 2 -0 1 2 4 5 4 4 5 4 5 3 2 0 -0 -1 -2
22 22 24 24 23 21 22 22 22 19 18 17 19 17 15 12 10 6 4 9 7 4 1 1 3 2 2 2 6 6 6 4 5 6 5 4 6 3 1 1 1 0 -3
26 26 26 25 24 23 23 22 21 19 18 18 16 16 15 12 11 14 11 10 8 5 4 1 2 2 4 3 4 5 4 5 3 3 5 5 4 3 1 1 0 -1 -3
26 25 25 24 22 23 23 22 20 20 21 19 16 19 17 12 14 14 10 9 7 4 5 3 3 4 3 2 1 4 3 4 3 3 4 2 4 2 1 1 -0 -1 -3
26 24 24 23 22 22 21 20 20 19 19 18 18 22 17 14 13 10 9 9 7 5 3 2 3 2 1 2 2 3 2 2 3 4 4 2 1 2 2 2 -0 -1 -2
25 23 21 21 21 22 21 19 20 20 18 18 21 14 14 13 13 11 10 11 7 5 4 2 4 2 2 3 2 2 2 3 3 3 2 3 1 1 2 1 -1 -2 -2
25 24 21 21 22 21 22 22 21 19 18 19 20 16 12 13 14 12 13 9 7 5 4 2 1 0 1 1 3 3 2 6 7 7 1 2 1 1 -1 -2 -1 -2 -1
26 25 23 23 22 23 22 21 20 18 17 18 17 16 14 15 13 12 10 8 5 4 2 1 1 1 0 -1 0 0 3 1 1 1 2 4 3 -2 2 -2 -1 -3 -1
26 24 24 24 23 23 22 20 19 18 17 17 17 16 14 12 12 10 9 5 3 1 1 1 1 -1 -1 0 0 2 -0 0 1 1 1 2 4 1 3 -1 1 -3 -2
Wind_Speed
14 11 11 9 9 8 8 8 7 6 6 7 7 8 9 9 11 10 10 13 12 12 14 14 15 16 15 15 14 15 14 12 14 18 16 18 20 21 21 17 16 15 16
14 13 12 10 9 9 8 8 7 6 6 6 7 7 8 9 10 11 11 12 12 13 14 15 16 15 17 17 16 18 17 17 17 20 18 19 22 23 20 21 13 15 14
11 11 13 11 10 10 9 8 8 7 6 6 7 7 7 7 9 8 10 11 10 11 12 14 15 16 17 18 17 18 19 17 16 17 17 18 19 22 22 20 16 14 15
16 10 14 11 11 10 11 9 8 8 9 7 7 6 6 8 8 8 9 10 10 11 11 12 15 15 16 18 16 18 19 18 18 17 17 18 20 23 19 21 22 9 15
20 17 14 13 12 11 11 10 9 9 8 7 6 4 6 8 8 6 8 9 9 10 10 11 13 14 13 13 14 17 19 18 18 19 19 19 20 25 23 20 18 20 8
21 19 18 17 15 14 13 12 11 10 8 8 6 5 4 6 7 5 5 7 7 8 9 8 10 15 14 11 10 12 14 17 18 18 18 19 20 22 22 21 19 18 13
22 21 20 18 16 15 14 13 12 11 11 9 7 7 6 7 4 1 2 5 5 7 7 7 9 12 16 15 6 10 12 14 15 15 17 18 19 22 23 20 22 19 8
22 21 21 19 17 16 15 13 12 11 10 9 6 4 5 7 4 5 9 3 5 6 9 12 12 14 18 18 11 11 11 13 13 12 13 14 15 17 19 18 20 17 4
23 21 21 20 18 17 16 14 12 11 9 8 6 4 4 8 5 7 13 2 3 5 7 11 13 14 18 20 14 13 13 14 13 12 12 13 15 19 22 17 20 19 17
23 19 19 20 19 18 16 14 12 10 9 8 7 5 3 9 6 9 13 1 3 3 4 4 16 13 16 17 14 14 14 15 14 14 12 14 15 16 19 17 18 19 18
22 22 20 19 17 15 15 14 12 11 10 9 8 7 4 7 7 7 11 3 6 3 4 6 10 11 12 15 14 13 13 13 13 12 12 14 14 15 16 15 15 15 16
23 22 21 20 17 18 16 14 13 11 10 10 10 9 7 7 5 7 7 8 9 4 4 6 7 8 8 10 12 13 12 12 12 13 13 15 15 16 15 15 12 10 7
23 23 21 20 18 19 18 16 14 13 12 11 10 9 9 9 9 7 5 3 5 3 5 4 4 4 6 5 8 10 11 12 13 13 14 14 14 13 13 14 12 12 8
24 23 21 21 19 18 17 15 14 14 12 12 11 10 9 7 4 5 4 6 6 3 3 1 2 5 4 4 6 9 10 11 11 12 13 12 12 13 13 13 13 13 12
23 22 21 19 20 19 16 15 13 10 10 12 11 9 8 8 7 8 7 5 5 4 6 2 4 5 6 7 7 7 9 10 11 12 12 14 14 14 14 14 14 14 14
23 20 20 19 19 17 16 11 16 16 16 16 13 12 12 15 12 8 6 4 3 3 3 3 4 5 5 6 7 8 8 9 11 11 11 12 13 14 15 13 14 15 14
22 21 19 18 19 18 17 16 13 11 12 12 11 12 10 12 10 7 5 3 2 6 1 2 3 4 5 5 6 7 7 8 8 9 10 11 13 12 13 14 15 16 15
19 20 19 17 16 15 15 14 15 15 14 11 10 13 14 12 9 6 4 5 5 2 2 2 3 3 4 5 6 6 7 8 8 9 9 10 11 11 12 14 14 14 16
19 18 17 15 15 15 15 15 15 15 14 13 13 13 13 11 7 4 4 4 0 1 1 1 2 2 3 4 4 5 4 5 5 6 7 8 10 11 10 12 13 12 15
17 20 19 17 17 17 16 16 15 15 15 15 14 15 15 12 8 9 3 2 2 1 0 1 1 2 3 3 3 3 4 4 5 6 6 6 8 9 10 11 12 14 14
19 20 20 19 18 17 16 16 15 14 15 14 14 15 19 12 9 7 5 4 3 2 2 1 1 1 3 2 4 3 3 4 4 5 5 6 6 7 9 9 12 13 14
20 21 20 18 18 17 17 16 15 14 15 14 11 11 17 11 7 6 6 5 3 1 1 2 3 2 2 3 3 3 2 3 4 4 5 5 6 7 8 9 10 12 13
20 21 21 18 18 18 16 15 14 13 14 14 15 13 11 12 9 8 6 7 5 4 1 2 2 1 0 1 2 3 4 4 4 4 6 6 7 6 8 8 10 10 12
20 20 20 18 17 17 16 14 13 14 14 14 14 12 12 12 9 7 6 7 6 5 3 3 3 1 2 2 3 2 3 4 5 4 1 6 7 7 8 9 8 12 9
20 20 18 18 18 17 16 15 14 14 14 14 13 13 12 10 9 8 7 7 6 6 5 3 3 4 4 2 3 4 7 5 5 9 7 6 5 5 7 6 6 10 10
20 19 19 18 17 16 15 15 15 14 14 13 12 12 11 11 10 10 9 8 7 7 5 5 5 3 2 5 3 5 3 3 5 5 7 9 7 7 6 8 9 9 11
Wind_Direction
157 154 148 144 139 135 121 112 105 95 79 73 66 55 38 34 32 27 37 31 25 19 15 13 7 359 358 3 357 359 356 346 326 331 332 352 357 357 352 355 8 10 2
157 155 152 148 151 133 121 114 109 99 85 79 79 67 59 40 45 33 38 42 29 28 17 16 11 4 7 6 2 1 357 341 344 336 349 356 1 4 353 354 10 14 8
129 153 153 157 149 128 121 108 91 89 83 76 79 72 58 55 56 54 37 49 43 25 26 18 14 12 10 4 5 2 358 345 354 344 355 359 2 360 351 359 354 22 18
154 124 114 113 126 135 117 104 96 95 93 87 76 67 62 50 50 46 49 42 41 36 26 27 19 17 12 8 5 4 359 353 0 359 4 1 5 360 352 354 352 8 27
164 157 152 144 140 124 127 130 122 116 111 108 107 85 85 73 50 42 50 45 37 34 30 20 31 19 18 22 13 7 7 5 6 3 6 4 3 359 357 341 352 346 35
169 168 169 163 154 150 150 154 144 140 138 126 121 120 123 85 69 51 47 52 38 38 29 31 32 25 10 14 31 24 23 14 12 8 7 4 359 357 350 343 348 352 1
171 173 171 169 164 166 166 162 161 161 158 148 161 159 139 99 74 335 264 100 63 39 29 28 39 36 13 345 33 34 31 29 19 9 9 8 357 357 346 347 347 338 3
176 176 172 173 172 173 172 172 169 164 166 162 156 158 126 94 49 315 317 300 51 47 41 17 26 29 19 360 9 29 26 24 20 16 13 7 3 0 353 345 344 340 2
179 179 176 176 177 176 178 174 172 168 162 150 154 144 125 116 55 341 321 108 75 45 38 41 22 22 17 6 17 19 17 14 8 7 12 16 11 13 11 5 7 7 355
180 176 172 179 180 179 177 173 171 162 156 149 143 134 11 113 65 12 352 13 53 359 53 70 50 21 19 19 20 16 11 357 359 359 11 14 15 14 18 20 10 13 4
178 171 176 180 172 162 170 172 171 158 160 145 149 145 113 41 69 35 13 28 2 359 15 21 47 15 20 19 21 19 5 338 355 360 5 12 11 12 16 11 15 16 14
169 171 175 173 172 174 169 172 171 157 151 172 160 165 148 123 82 67 43 32 354 355 12 34 35 8 7 24 18 3 1 360 5 5 8 10 8 6 7 359 7 1 33
166 173 173 170 173 178 171 177 177 170 174 178 181 180 161 162 146 139 125 94 30 33 35 32 353 346 343 23 12 358 13 12 7 9 6 6 6 356 2 360 357 358 16
168 172 173 174 174 177 170 182 183 181 183 185 186 181 164 172 167 174 143 168 168 211 176 184 287 275 251 329 12 12 16 11 9 6 2 357 1 4 5 5 357 360 5
172 172 171 175 179 175 175 179 187 180 194 184 180 172 173 177 104 78 36 40 360 29 297 313 355 357 358 3 6 16 21 7 8 4 6 358 1 9 359 8 4 3 8
173 173 174 173 183 175 172 124 59 105 87 79 66 127 84 105 112 108 110 79 11 313 250 360 4 353 0 0 2 1 15 12 3 3 5 4 359 6 358 9 9 2 7
176 175 172 172 181 177 174 169 149 104 102 103 106 122 140 128 119 129 130 138 270 279 252 11 2 355 355 4 2 3 360 17 356 2 8 8 355 4 4 4 14 6 1
175 170 169 174 176 171 167 164 161 165 164 157 155 143 138 134 133 140 166 221 211 181 33 9 358 358 356 1 6 0 1 4 5 357 13 5 358 3 7 7 12 10 354
167 165 160 164 165 164 162 160 165 172 174 164 162 160 152 140 138 166 221 264 241 140 38 12 357 345 349 351 14 356 348 7 346 351 9 9 357 356 13 5 5 7 359
162 155 157 161 161 164 167 171 176 180 178 166 173 177 165 158 191 191 188 198 196 159 78 312 350 327 339 336 344 344 320 352 2 354 2 13 1 353 4 6 5 359 9
162 159 163 165 170 173 175 177 183 185 180 181 191 185 172 187 214 187 190 186 206 182 189 283 276 271 296 316 315 346 348 339 356 344 356 355 342 358 353 9 3 358 7
158 164 170 172 172 177 179 183 185 184 181 189 185 155 166 192 221 199 198 170 170 195 189 266 272 302 328 339 339 320 316 316 338 347 341 329 335 359 351 358 4 357 1
166 168 174 174 175 174 179 182 182 184 185 187 161 153 185 203 210 196 187 149 191 194 167 264 249 269 184 221 313 313 309 343 349 353 318 325 330 11 337 354 354 360 360
166 169 171 168 170 170 175 177 177 184 185 178 168 165 184 200 189 186 159 164 185 188 176 187 245 236 22 276 276 269 294 12 334 331 329 309 317 358 342 341 356 341 355
161 166 168 162 166 168 171 173 178 181 182 176 177 181 183 176 177 172 172 165 192 195 188 209 222 172 194 204 290 321 43 32 345 332 297 282 294 306 297 316 353 328 339
158 161 159 160 162 168 168 173 177 176 180 179 177 177 174 179 181 175 169 181 186 199 194 193 177 203 215 224 202 66 16 339 318 345 311 299 297 299 327 334 331 329 326